Momo

operational
NORAD ID: 17527 Int'l Des: 1987-018 Owner: NASDA Country: J
LEOCIRCULARRETROGRADESSO

About Momo

Description loading...

Live Position

Loading 3D Globe...

Upcoming Passes

Altitude History

Altitude vs Time

uPlot chart will show altitude changes over time

Two-Line Element Set

1 17527U 87018A 26063.14789913 .00000428 00000-0 30216-3 0 9994
2 17527 98.8565 115.4854 0009398 122.3070 298.7077 14.03186727995335
Epoch: Mar 4, 2026 • Age: 19 hours

Current Status

Altitude 885.9 km
Velocity 7.42 km/s
Sub-Earth Point 58.79°N, 140.11°W
Launch Date Feb 19, 1987
Age 39 years
Type other

Technical Details

Classification Payload
Mass 740.00 kg
Dry Mass 740.00 kg
Total Mass 740.00 kg
Length 2.40 m
Diameter 1.30 m
Span 6.30 m
Shape Box + Pan
Manufacturer NEC
Bus Type MOS
Phase Status In Orbit
Owner/State NASDA/J

Large Constellations

Loading constellations...